Dati Storici

Data ora Umidita' aria (%) Temperatura aria (°C) Rad globale (W/m²) Gonioanemometro (°) Tacoanemometro (m/s) Pioggia (mm)
12-06-2020 13:30 64.8 % 22.81 -65.382 1.966 0 0
12-06-2020 13:20 65.3 % 22.666 -69.323 -0.01 0 0
12-06-2020 13:10 67.4 % 22.297 -66.805 2.262 0 0
12-06-2020 13:00 68.5 % 22.218 -69.536 0.63 0 0
12-06-2020 12:50 65.5 % 21.957 -68.849 3.694 0 0
12-06-2020 12:40 67.8 % 23.263 -71.96 1.48 0 0
12-06-2020 12:30 67.3 % 22.119 -69.938 1.495 0 0
12-06-2020 12:20 67.4 % 22.189 -71.447 3.24 0 0
12-06-2020 12:10 67.9 % 22.017 -73.644 2.005 0 0
12-06-2020 12:00 69.4 % 21.962 -72 1.224 0 0
12-06-2020 11:50 68.3 % 21.797 -73.277 3.435 0 0
12-06-2020 11:40 69.2 % 22.171 -72.69 2.295 0 0
12-06-2020 11:30 70.4 % 21.186 -73.588 3.565 0 0
12-06-2020 11:20 70.9 % 21.518 -53.99 0.138 0 0
12-06-2020 11:10 73.1 % 21.238 -71.174 1.194 0 0
12-06-2020 11:00 72.9 % 20.68 -72.804 3.366 0 0
12-06-2020 10:50 69.8 % 21.079 -69.776 3.484 0 0
12-06-2020 10:40 69.2 % 21.48 -71.322 2.708 0 0
12-06-2020 10:30 70 % 20.803 -72.773 1.837 0 0
12-06-2020 10:20 69.3 % 21.266 -74.696 1.742 0 0

I dati sono presentati in modo automatico a scopo informativo. In seguito a verifica i dati possono subire modifiche o essere invalidati e non riportati negli archivi definitivi.